Grant County, OR

1:13 PM PDT on June 23, 2017 (GMT -0700)
Grant County Regional

Weather History for KGCD - August, 2014

Change the Weather History Date:

Sunday, August 17, 2014

  Actual Average (KBNO) Record (KBNO)
Temperature  
Mean Temperature 73 °F -  
Max Temperature 91 °F 83 °F 99 °F (2012)
Min Temperature 56 °F 43 °F 33 °F (1978)
Cooling Degree Days 8    
Growing Degree Days 23 (Base 50)    
Moisture  
Dew Point 46 °F    
Average Humidity 44    
Maximum Humidity 69    
Minimum Humidity 15    
Precipitation  
Precipitation 0.00 in - - ()
Sea Level Pressure  
Sea Level Pressure 30.12 in    
Wind  
Wind Speed 6 mph (SE)    
Max Wind Speed 30 mph    
Max Gust Speed 37 mph    
Visibility 10 miles    
Events Rain , Thunderstorm    
Averages and records for this station are not official NWS values.
T = Trace of Precipitation, MM = Missing Value Source: NWS Daily Summary

Daily Weather History Graph

Daily Weather History Graph

Search for Another Location

Airport or City:

Trip Planner

Search our weather history database for the weather conditions in past years. The results will help you decide how hot, cold, wet, or windy it might be!

Date:

Astronomy

Aug. 17, 2014 Rise Set
Actual Time 6:01 AM PDT 7:57 PM PDT
Civil Twilight 5:29 AM PDT 8:28 PM PDT
Nautical Twilight 4:51 AM PDT 9:07 PM PDT
Astronomical Twilight 4:09 AM PDT 9:48 PM PDT
Moon No Moon Rise 2:10 PM PDT (8/17)
Length of Visible Light 14h 58m
Length of Day
13h 56m
Waning Gibbous, 47% of the Moon is Illuminated
Aug 17
Waning Gibbous
Aug 25
New
Sep 2
First Quarter
Sep 8
Full
Sep 15
Last Quarter

Hourly Weather History & Observations

Time (PDT) Temp. Dew Point Humidity Pressure Visibility Wind Dir Wind Speed Gust Speed Precip Events Conditions
12:15 AM 68.2 °F 49.3 °F 51% 30.14 in 10.0 mi West 3.5 mph - N/A   Clear
12:35 AM 66.4 °F 49.1 °F 54% 30.14 in 10.0 mi North 3.5 mph - N/A   Clear
12:55 AM 63.9 °F 48.4 °F 57% 30.14 in 10.0 mi East 4.6 mph - N/A   Clear
1:15 AM 63.7 °F 48.4 °F 57% 30.14 in 10.0 mi East 3.5 mph - N/A   Clear
1:35 AM 63.1 °F 48.4 °F 59% 30.14 in 10.0 mi East 4.6 mph - N/A   Clear
1:55 AM 62.6 °F 48.2 °F 59% 30.14 in 10.0 mi ESE 5.8 mph - N/A   Clear
2:15 AM 61.5 °F 48.0 °F 61% 30.13 in 10.0 mi East 5.8 mph - N/A   Clear
2:35 AM 61.0 °F 47.8 °F 62% 30.14 in 10.0 mi East 6.9 mph - N/A   Clear
2:55 AM 60.1 °F 48.2 °F 65% 30.14 in 10.0 mi East 8.1 mph - N/A   Clear
3:15 AM 60.6 °F 47.7 °F 62% 30.14 in 10.0 mi East 8.1 mph - N/A   Clear
3:35 AM 59.9 °F 47.5 °F 64% 30.14 in 10.0 mi ESE 9.2 mph - N/A   Clear
3:55 AM 60.1 °F 47.7 °F 64% 30.14 in 10.0 mi ESE 8.1 mph - N/A   Clear
4:15 AM 59.9 °F 47.7 °F 64% 30.14 in 10.0 mi ESE 5.8 mph - N/A   Clear
4:35 AM 58.1 °F 47.3 °F 67% 30.14 in 10.0 mi ESE 3.5 mph - N/A   Clear
4:55 AM 57.6 °F 46.9 °F 68% 30.14 in 10.0 mi SE 4.6 mph - N/A   Clear
5:15 AM 56.8 °F 46.9 °F 69% 30.15 in 10.0 mi ESE 6.9 mph - N/A   Clear
5:35 AM 58.1 °F 47.3 °F 67% 30.15 in 10.0 mi SE 10.4 mph - N/A   Clear
5:55 AM 58.1 °F 47.3 °F 67% 30.15 in 10.0 mi ESE 8.1 mph - N/A   Clear
6:15 AM 57.2 °F 47.1 °F 69% 30.16 in 10.0 mi SE 9.2 mph - N/A   Clear
6:35 AM 59.4 °F 47.7 °F 65% 30.17 in 10.0 mi SE 8.1 mph - N/A   Clear
6:55 AM 59.9 °F 47.8 °F 64% 30.17 in 10.0 mi ESE 5.8 mph - N/A   Clear
7:15 AM 60.3 °F 47.8 °F 64% 30.17 in 10.0 mi ESE 4.6 mph - N/A   Clear
7:35 AM 60.8 °F 48.2 °F 63% 30.17 in 10.0 mi ESE 4.6 mph - N/A   Clear
7:55 AM 60.6 °F 47.8 °F 63% 30.18 in 10.0 mi SE 8.1 mph - N/A   Clear
8:15 AM 63.5 °F 48.4 °F 58% 30.17 in 10.0 mi ESE 5.8 mph - N/A   Clear
8:35 AM 65.5 °F 48.7 °F 55% 30.17 in 10.0 mi ESE 5.8 mph - N/A   Clear
9:15 AM 68.2 °F 49.1 °F 50% 30.17 in 10.0 mi ESE 3.5 mph - N/A   Clear
9:35 AM 69.6 °F 49.1 °F 48% 30.17 in 10.0 mi Calm Calm - N/A   Clear
9:55 AM 72.1 °F 49.3 °F 44% 30.16 in 10.0 mi Calm Calm - N/A   Clear
10:15 AM 73.4 °F 49.8 °F 43% 30.16 in 10.0 mi Calm Calm - N/A   Clear
10:35 AM 74.1 °F 50.0 °F 43% 30.16 in 10.0 mi Calm Calm - N/A   Clear
10:55 AM 75.9 °F 49.1 °F 39% 30.16 in 10.0 mi SW 3.5 mph - N/A   Clear
11:15 AM 77.7 °F 49.8 °F 37% 30.16 in 10.0 mi WSW 4.6 mph - N/A   Clear
11:35 AM 78.3 °F 49.5 °F 36% 30.15 in 10.0 mi West 3.5 mph - N/A   Clear
11:55 AM 78.3 °F 49.3 °F 36% 30.15 in 10.0 mi NNW 4.6 mph - N/A   Clear
12:15 PM 80.6 °F 48.7 °F 33% 30.14 in 10.0 mi WNW 3.5 mph - N/A   Clear
12:35 PM 81.1 °F 46.4 °F 29% 30.14 in 10.0 mi West 4.6 mph - N/A   Clear
12:55 PM 82.2 °F 42.1 °F 24% 30.13 in 10.0 mi Calm Calm - N/A   Clear
1:15 PM 84.2 °F 42.4 °F 23% 30.12 in 10.0 mi WNW 3.5 mph - N/A   Clear
1:35 PM 85.3 °F 40.3 °F 20% 30.12 in 10.0 mi North 4.6 mph - N/A   Clear
1:55 PM 86.5 °F 35.8 °F 16% 30.11 in 10.0 mi NW 5.8 mph - N/A   Clear
2:15 PM 85.8 °F 37.4 °F 18% 30.10 in 10.0 mi WNW 5.8 mph - N/A   Clear
2:35 PM 88.0 °F 37.4 °F 17% 30.10 in 10.0 mi WNW 5.8 mph - N/A   Clear
2:55 PM 88.5 °F 38.3 °F 17% 30.08 in 10.0 mi NW 6.9 mph - N/A   Clear
3:15 PM 88.5 °F 39.6 °F 18% 30.07 in 10.0 mi WSW 8.1 mph - N/A   Clear
3:35 PM 88.7 °F 39.4 °F 18% 30.07 in 10.0 mi West 8.1 mph - N/A   Clear
3:55 PM 90.0 °F 38.8 °F 17% 30.07 in 10.0 mi WSW 8.1 mph - N/A   Clear
4:15 PM 90.9 °F 37.4 °F 15% 30.05 in 10.0 mi West 8.1 mph - N/A   Clear
4:35 PM 90.5 °F 43.5 °F 20% 30.05 in 10.0 mi North 10.4 mph 17.3 mph N/A   Scattered Clouds
4:55 PM 86.7 °F 44.1 °F 22% 30.05 in 10.0 mi North 10.4 mph - N/A Thunderstorm Scattered Clouds
5:15 PM 84.6 °F 45.0 °F 25% 30.05 in 10.0 mi ENE 11.5 mph 17.3 mph N/A   Mostly Cloudy
5:35 PM 83.7 °F 43.2 °F 24% 30.04 in 10.0 mi ENE 9.2 mph - N/A   Overcast
5:55 PM 82.4 °F 43.7 °F 26% 30.05 in 10.0 mi SSE 29.9 mph 36.8 mph N/A Thunderstorm Overcast
6:15 PM 78.3 °F 45.3 °F 31% 30.05 in 10.0 mi ESE 10.4 mph 25.3 mph N/A Rain , Thunderstorm Light Thunderstorms and Rain
6:35 PM 77.4 °F 47.1 °F 34% 30.05 in 10.0 mi SSE 10.4 mph 16.1 mph N/A Thunderstorm Clear
6:55 PM 77.4 °F 47.7 °F 35% 30.05 in 10.0 mi SSE 5.8 mph - N/A   Clear
7:15 PM 77.7 °F 47.3 °F 34% 30.04 in 10.0 mi East 3.5 mph - N/A   Clear
7:35 PM 73.8 °F 52.9 °F 48% 30.04 in 10.0 mi ESE 6.9 mph - N/A   Clear
7:55 PM 73.4 °F 52.0 °F 47% 30.05 in 10.0 mi East 6.9 mph - N/A   Clear
8:15 PM 72.5 °F 51.1 °F 47% 30.06 in 10.0 mi SSE 5.8 mph - N/A   Clear
8:35 PM 72.0 °F 49.5 °F 45% 30.06 in 10.0 mi WNW 3.5 mph - N/A   Clear
8:55 PM 71.4 °F 48.6 °F 44% 30.07 in 10.0 mi Calm Calm - N/A   Clear
9:15 PM 70.9 °F 48.0 °F 44% 30.09 in 10.0 mi SW 6.9 mph - N/A   Clear
9:35 PM 72.1 °F 46.6 °F 40% 30.10 in 10.0 mi SW 4.6 mph - N/A   Clear
9:55 PM 73.4 °F 46.0 °F 38% 30.12 in 10.0 mi SSW 8.1 mph - N/A   Scattered Clouds
10:15 PM 74.5 °F 45.7 °F 36% 30.13 in 10.0 mi SW 15.0 mph 23.0 mph N/A   Scattered Clouds
10:35 PM 73.8 °F 45.9 °F 37% 30.12 in 10.0 mi SW 12.7 mph 23.0 mph N/A   Clear
10:55 PM 73.4 °F 45.5 °F 37% 30.13 in 10.0 mi SSW 4.6 mph 11.5 mph N/A   Clear
11:15 PM 72.3 °F 45.7 °F 39% 30.13 in 10.0 mi SW 3.5 mph - N/A   Clear
11:35 PM 71.6 °F 46.6 °F 41% 30.10 in 10.0 mi WNW 4.6 mph - N/A   Clear
11:55 PM 70.7 °F 46.8 °F 42% 30.09 in 10.0 mi Calm Calm - N/A   Scattered Clouds